#timestamp,LO_Frequency,Hit 
1500213615.1,286044869.6,N
1500213616.0,286044869.6,N
1500213635.8,286044868.9,N
1500213655.6,286044871.4,N
1500213675.5,286044871.3,N
1500213695.3,286044871.4,N
1500213715.2,286044871.5,N
1500213735.9,286044868.6,N
1500213755.7,286044870.5,N
1500213775.6,286044870.9,N
1500213795.4,286044867.7,N
1500213815.2,286044869.6,N
1500213835.1,286044868.1,N
1500213836.0,286044868.1,N
1500213855.8,286044867.1,N
1500213875.7,286044867.3,N
1500213895.5,286044871.4,N
1500213915.3,286044870.9,N
1500213935.2,286044870.2,N
1500213955.0,286044870.5,N
1500213955.9,286044870.5,N
1500213975.8,286044870.6,N
1500213995.6,286044870.7,N
1500214015.4,286044872.2,N
1500214035.3,286044872.2,N
1500214055.1,286044887.0,N
1500214056.0,286044871.8,N
1500214075.8,286044874.2,N
1500214095.7,286044874.6,N
1500214115.5,286044871.8,N
1500214135.3,286044871.6,N
1500214155.2,286044871.7,N
1500214175.0,286044870.9,N
1500214175.9,286044870.9,N
1500214195.8,286044872.3,N
1500214215.6,286044872.3,N
1500214235.4,286044871.8,N
1500214255.3,286044871.7,N
1500214275.1,286044873.5,N
1500214295.9,286044872.0,N
1500214315.7,286044873.0,N
1500214335.5,286044870.3,N
1500214355.4,286044869.6,N
1500214375.2,286044868.9,N
1500214395.0,286044871.2,N
1500214395.9,286044871.2,N
1500214415.8,286044870.4,N
1500214435.6,286044873.1,N
1500214455.5,286044873.0,N
1500214475.3,286044874.1,N
1500214495.1,286044872.6,N
1500214515.9,286044872.1,N
1500214535.7,286044872.4,N
1500214555.5,286044872.1,N
1500214575.4,286044872.9,N
1500214595.2,286044873.9,N
1500214615.1,286044871.8,N
1500214616.0,286044871.8,N
1500214635.8,286044872.3,N
1500214655.6,286044871.9,N
1500214675.5,286044872.5,N
1500214695.3,286044872.4,N
1500214715.2,286044874.6,N
1500214735.9,286044872.7,N
1500214755.7,286044872.3,N
1500214775.6,286044871.7,N
1500214795.4,286044874.7,N
1500214815.2,286044871.9,N
1500214835.1,286044873.7,N
1500214836.0,286044873.7,N
1500214855.8,286044873.4,N
1500214875.7,286044876.3,N
1500214895.5,286044875.4,N
1500214915.3,286044875.9,N
1500214935.2,286044875.0,N
1500214955.0,286044875.4,N
1500214955.9,286044875.4,N
1500214975.7,286044875.3,N
1500214995.6,286044875.3,N
1500215015.4,286044875.1,N
1500215035.3,286044875.0,N
1500215055.1,286044875.2,N
1500215056.0,286044875.2,N
1500215075.8,286044876.1,N
1500215095.7,286044875.3,N
1500215115.5,286044877.1,N
1500215135.3,286044876.9,N
1500215155.2,286044877.4,N
1500215175.0,286044877.6,N
1500215175.9,286044877.6,N
1500215195.8,286044876.4,N
1500215215.6,286044879.4,N
1500215235.4,286044878.2,N
1500215255.3,286044880.5,N
1500215275.1,286044880.6,N
1500215295.8,286044881.0,N
1500215315.7,286044878.0,N
1500215335.5,286044878.2,N
1500215355.4,286044880.9,N
1500215375.2,286044878.9,N
1500215395.0,286044877.2,N
1500215395.9,286044877.2,N
1500215415.8,286044876.4,N
1500215435.6,286044876.9,N
1500215455.4,286044879.2,N
1500215475.3,286044876.7,N
1500215495.1,286044879.3,N
1500215515.9,286044878.2,N
1500215535.7,286044879.3,N
1500215555.5,286044879.3,N
1500215575.4,286044878.0,N
1500215595.2,286044879.1,N
1500215615.0,286044877.3,N
1500215615.9,286044877.3,N
1500215635.8,286044876.7,N
1500215655.6,286044877.0,N
1500215675.5,286044876.9,N
1500215695.3,286044876.6,N
1500215715.1,286044876.6,N
1500215735.9,286044876.8,N
1500215755.7,286044879.5,N
1500215775.5,286044877.1,N
1500215795.4,286044876.0,N
1500215815.2,286044874.4,N
1500215835.1,286044871.7,N
1500215836.0,286044871.7,N
1500215855.8,286044872.1,N
1500215875.6,286044874.6,N
1500215895.5,286044871.6,N
1500215915.3,286044874.7,N
1500215935.1,286044873.5,N
1500215955.9,286044875.8,N
1500215975.7,286044875.3,N
1500215995.6,286044877.9,N
1500216015.4,286044877.0,N
1500216035.2,286044877.6,N
1500216055.1,286044875.2,N
1500216056.0,286044875.2,N
1500216075.8,286044880.1,N
1500216095.6,286044879.2,N
1500216115.5,286044877.1,N
1500216135.3,286044877.2,N
1500216155.2,286044877.4,N
1500216175.9,286044874.8,N
1500216195.7,286044877.3,N
1500216215.6,286044876.6,N
1500216235.4,286044879.1,N
1500216255.2,286044876.4,N
1500216275.1,286044878.5,N
1500216276.0,286044878.5,N
1500216295.8,286044878.7,N
1500216315.7,286044878.1,N
1500216335.5,286044881.0,N
1500216355.3,286044880.6,N
1500216375.2,286044879.0,N
1500216395.0,286044876.8,N
1500216395.9,286044876.8,N
1500216415.7,286044878.8,N
1500216435.6,286044878.4,N
1500216455.4,286044878.9,N
1500216475.3,286044878.0,N
1500216495.1,286044881.1,N
1500216496.0,286044881.1,N
1500216515.8,286044878.8,N
1500216535.7,286044878.6,N
1500216555.5,286044878.3,N
1500216575.3,286044878.6,N
1500216595.2,286044878.8,N
1500216615.0,286044878.9,N
1500216615.9,286044878.9,N
1500216635.8,286044877.2,N
1500216655.6,286044877.0,N
1500216675.4,286044879.0,N
1500216695.3,286044879.3,N
1500216715.1,286044876.4,N
1500216735.8,286044878.7,N
1500216755.7,286044879.2,N
1500216775.5,286044878.6,N
1500216795.4,286044878.1,N
1500216815.2,286044878.4,N
1500216835.0,286044880.9,N
1500216835.9,286044880.9,N
1500216855.8,286044876.8,N
1500216875.6,286044877.6,N
1500216895.5,286044874.9,N
1500216915.3,286044875.2,N
1500216935.1,286044877.3,N
1500216955.9,286044877.0,N
1500216975.7,286044876.7,N
1500216995.5,286044876.5,N
1500217015.4,286044877.0,N
1500217035.2,286044876.5,N
1500217055.1,286044878.8,N
1500217056.0,286044878.8,N
1500217075.8,286044878.2,N
1500217095.6,286044878.7,N
1500217115.5,286044880.2,N
1500217135.3,286044880.1,N
1500217155.2,286044880.3,N
1500217175.9,286044880.6,N
1500217195.7,286044880.6,N
